Location: Newark
(48.2308°N, 120.8549°W)
Time: 01:15:05
(UTC+00:00)

Transit 2A Rocket - Pass Details

Date: 26 May 2020
Orbit: 584 x 919 km, 66.7° (Epoch: 13 July)

Event Time Altitude Azimuth Distance (km) Brightness Sun altitude
Rises 07:18:00 0° 197° (SSW) 3,029 - -19.9°
Reaches altitude 10° 07:20:15 10° 193° (SSW) 2,167 - -20.0°
Exits shadow 07:23:51 43° 161° (SSE) 1,043 5.2 -20.1°
Maximum altitude 07:25:03 53° 117° (ESE) 930 5.2 -20.1°
Drops below altitude 10° 07:30:23 10° 42° (NE) 2,402 8.1 -20.2°
Sets 07:32:59 0° 38° (NE) 3,391 9.0 -20.3°
